Regional Weather Roundup
Issued by NWS

Home | Current Version | Previous Version | Graphics & Text | Print | Product List | Glossary Off
Versions: 1 2 3 4 5 6 7 8 9 10 11 12 13 14 15 16 17 18 19 20 21 22 23 24 25 26 27 28 29 30 31 32 33 34 35 36 37 38 39 40 41 42 43 44 45 46 47 48 49 50

835
ASUS43 KTOP 240459
RWRKS

WEATHER ROUNDUP FOR KANSAS
NATIONAL WEATHER SERVICE GOODLAND KS
1200 AM CDT SUN JUL 24 2016

NOTE:  "FAIR" INDICATES FEW OR NO CLOUDS BELOW 12,000 FEET WITH NO
SIGNIFICANT WEATHER AND/OR OBSTRUCTIONS TO VISIBILITY.

KSZ001>006-013>018-027>032-041>047-240600-
NORTHWEST KANSAS

CITY           SKY/WX    TMP DP  RH WIND       PRES   REMARKS
GOODLAND       CLOUDY    72  59  63 NE7       29.99R
HAYS           CLOUDY    84  57  39 SW10      29.87R
HILL CITY      MOCLDY    79  70  74 E5        29.88R
RUSSELL        CLOUDY    85  61  44 S13       29.84R
$$

KSZ061>065-074>080-084>089-240600-
SOUTHWEST KANSAS

CITY           SKY/WX    TMP DP  RH WIND       PRES   REMARKS
DODGE CITY     PTCLDY    83  59  44 S12       29.91R
ELKHART          N/A    N/A N/A N/A MISG        N/A
GARDEN CITY    CLOUDY    83  61  47 SE9       29.92R
GREAT BEND     PTCLDY    84  61  45 S12       29.86S
LIBERAL        CLOUDY    84  54  34 S10       29.94R
$$

KSZ066>073-081>083-090>101-240600-
SOUTHEAST KANSAS

CITY           SKY/WX    TMP DP  RH WIND       PRES   REMARKS
CHANUTE        PTCLDY    81  71  71 S6        29.90S
COFFEYVILLE    CLEAR     82  71  69 S5        29.89S
HUTCHINSON     CLOUDY    86  65  49 S12       29.87S
NEWTON         CLOUDY    86  68  54 S14       29.89F
PARSONS        CLOUDY    84  71  65 S5        29.91R
WICHITA INTL   CLOUDY    88  68  51 S13       29.88S
WICHITA JABRA  MOCLDY    87  69  54 S15       29.89S
WINFIELD       CLOUDY    87  68  52 S12       29.91R
$$

KSZ007>012-019>026-033>040-048>060-102>105-240600-
NORTHEAST KANSAS

CITY           SKY/WX    TMP DP  RH WIND       PRES   REMARKS
CONCORDIA      CLOUDY    85  68  56 S18G26    29.82R
EMPORIA        PTCLDY    84  71  65 S14       29.88F
LAWRENCE       CLOUDY    80  72  76 SE7       29.86S
MANHATTAN      PTCLDY    89  68  49 S14       29.83R
OLATHE IND     CLOUDY    84  72  67 S8        29.89S
OLATHE EXE     CLOUDY    83  71  67 S6        29.90R
SALINA         PTCLDY    87  68  52 S13       29.83S
TOPEKA BILLARD CLEAR     86  70  58 S12       29.85S
TOPEKA FORBES  CLEAR     86  70  58 S9        29.86F
$$




USA.gov is the U.S. government's official web portal to all federal, state and local government web resources and services.